Year,Month,Day,Hour,Minute,Value (Times are PST for temperature in C)
2008,08,26,00,00,12.80
2008,08,26,00,01,12.70
2008,08,26,00,02,12.70
2008,08,26,00,03,12.70
2008,08,26,00,04,12.70
2008,08,26,00,05,12.70
2008,08,26,00,06,12.60
2008,08,26,00,07,12.60
2008,08,26,00,08,12.60
2008,08,26,00,09,12.60
2008,08,26,00,10,12.60
2008,08,26,00,11,12.60
2008,08,26,00,12,12.60
2008,08,26,00,13,12.60
2008,08,26,00,14,12.60
2008,08,26,00,15,12.50
2008,08,26,00,16,12.50
2008,08,26,00,17,12.50
2008,08,26,00,18,12.50
2008,08,26,00,19,12.50
2008,08,26,00,20,12.40
2008,08,26,00,21,12.40
2008,08,26,00,22,12.40
2008,08,26,00,23,12.40
2008,08,26,00,24,12.40
2008,08,26,00,25,12.40
2008,08,26,00,26,12.40
2008,08,26,00,27,12.40
2008,08,26,00,28,12.30
2008,08,26,00,29,12.40
2008,08,26,00,30,12.40
2008,08,26,00,31,12.40
2008,08,26,00,32,12.40
2008,08,26,00,33,12.40
2008,08,26,00,34,12.40
2008,08,26,00,35,12.40
2008,08,26,00,36,12.40
2008,08,26,00,37,12.40
2008,08,26,00,38,12.40
2008,08,26,00,39,12.30
2008,08,26,00,40,12.30
2008,08,26,00,41,12.30
2008,08,26,00,42,12.30
2008,08,26,00,43,12.30
2008,08,26,00,44,12.30
2008,08,26,00,45,12.30
2008,08,26,00,46,12.30
2008,08,26,00,47,12.40
2008,08,26,00,48,12.40
2008,08,26,00,49,12.50
2008,08,26,00,50,12.50
2008,08,26,00,51,12.50
2008,08,26,00,52,12.60
2008,08,26,00,53,12.60
2008,08,26,00,54,12.60
2008,08,26,00,55,12.60
2008,08,26,00,56,12.60
2008,08,26,00,57,12.70
2008,08,26,00,58,12.60
2008,08,26,00,59,12.60
2008,08,26,01,00,12.60
2008,08,26,01,01,12.60
2008,08,26,01,02,12.60
2008,08,26,01,03,12.60
2008,08,26,01,04,12.60
2008,08,26,01,05,12.60
2008,08,26,01,06,12.50
2008,08,26,01,07,12.60
2008,08,26,01,08,12.50
2008,08,26,01,09,12.50
2008,08,26,01,10,12.50
2008,08,26,01,11,12.50
2008,08,26,01,12,12.50
2008,08,26,01,13,12.50
2008,08,26,01,14,12.50
2008,08,26,01,15,12.50
2008,08,26,01,16,12.50
2008,08,26,01,17,12.50
2008,08,26,01,18,12.50
2008,08,26,01,19,12.40
2008,08,26,01,20,12.40
2008,08,26,01,21,12.40
2008,08,26,01,22,12.30
2008,08,26,01,23,12.30
2008,08,26,01,24,12.20
2008,08,26,01,25,12.10
2008,08,26,01,26,12.00
2008,08,26,01,27,11.90
2008,08,26,01,28,11.80
2008,08,26,01,29,11.80
2008,08,26,01,30,11.70
2008,08,26,01,31,11.70
2008,08,26,01,32,11.60
2008,08,26,01,33,11.50
2008,08,26,01,34,11.40
2008,08,26,01,35,11.40
2008,08,26,01,36,11.30
2008,08,26,01,37,11.20
2008,08,26,01,38,11.20
2008,08,26,01,39,11.20
2008,08,26,01,40,11.20
2008,08,26,01,41,11.20
2008,08,26,01,42,11.20
2008,08,26,01,43,11.20
2008,08,26,01,44,11.20
2008,08,26,01,45,11.20
2008,08,26,01,46,11.10
2008,08,26,01,47,11.10
2008,08,26,01,48,11.10
2008,08,26,01,49,11.10
2008,08,26,01,50,11.00
2008,08,26,01,51,11.00
2008,08,26,01,52,11.00
2008,08,26,01,53,10.90
2008,08,26,01,54,10.90
2008,08,26,01,55,10.90
2008,08,26,01,56,10.90
2008,08,26,01,57,10.90
2008,08,26,01,58,10.90
2008,08,26,01,59,10.90
2008,08,26,02,00,10.90
2008,08,26,02,01,10.90
2008,08,26,02,02,10.80
2008,08,26,02,03,10.80
2008,08,26,02,04,10.80
2008,08,26,02,05,10.80
2008,08,26,02,06,10.80
2008,08,26,02,07,10.80
2008,08,26,02,08,10.80
2008,08,26,02,09,10.80
2008,08,26,02,10,10.80
2008,08,26,02,11,10.80
2008,08,26,02,12,10.80
2008,08,26,02,13,10.80
2008,08,26,02,14,10.70
2008,08,26,02,15,10.70
2008,08,26,02,16,10.70
2008,08,26,02,17,10.70
2008,08,26,02,18,10.70
2008,08,26,02,19,10.70
2008,08,26,02,20,10.70
2008,08,26,02,21,10.70
2008,08,26,02,22,10.60
2008,08,26,02,23,10.60
2008,08,26,02,24,10.60
2008,08,26,02,25,10.60
2008,08,26,02,26,10.60
2008,08,26,02,27,10.50
2008,08,26,02,28,10.50
2008,08,26,02,29,10.50
2008,08,26,02,30,10.40
2008,08,26,02,31,10.40
2008,08,26,02,32,10.30
2008,08,26,02,33,10.30
2008,08,26,02,34,10.20
2008,08,26,02,35,10.10
2008,08,26,02,36,10.00
2008,08,26,02,37,9.90
2008,08,26,02,38,9.80
2008,08,26,02,39,9.70
2008,08,26,02,40,9.60
2008,08,26,02,41,9.60
2008,08,26,02,42,9.50
2008,08,26,02,43,9.40
2008,08,26,02,44,9.40
2008,08,26,02,45,9.30
2008,08,26,02,46,9.30
2008,08,26,02,47,9.20
2008,08,26,02,48,9.20
2008,08,26,02,49,9.20
2008,08,26,02,50,9.10
2008,08,26,02,51,9.00
2008,08,26,02,52,9.00
2008,08,26,02,53,9.00
2008,08,26,02,54,8.90
2008,08,26,02,55,8.90
2008,08,26,02,56,8.90
2008,08,26,02,57,8.80
2008,08,26,02,58,8.80
2008,08,26,02,59,8.80
2008,08,26,03,00,8.80
2008,08,26,03,01,8.80
2008,08,26,03,02,8.80
2008,08,26,03,03,8.80
2008,08,26,03,04,8.80
2008,08,26,03,05,8.80
2008,08,26,03,06,8.80
2008,08,26,03,07,8.80
2008,08,26,03,08,8.80
2008,08,26,03,09,8.80
2008,08,26,03,10,8.80
2008,08,26,03,11,8.80
2008,08,26,03,12,8.80
2008,08,26,03,13,8.70
2008,08,26,03,14,8.70
2008,08,26,03,15,8.70
2008,08,26,03,16,8.70
2008,08,26,03,17,8.70
2008,08,26,03,18,8.70
2008,08,26,03,19,8.70
2008,08,26,03,20,8.60
2008,08,26,03,21,8.60
2008,08,26,03,22,8.60
2008,08,26,03,23,8.60
2008,08,26,03,24,8.60
2008,08,26,03,25,8.60
2008,08,26,03,26,8.60
2008,08,26,03,27,8.60
2008,08,26,03,28,8.60
2008,08,26,03,29,8.60
2008,08,26,03,30,8.50
2008,08,26,03,31,8.50
2008,08,26,03,32,8.40
2008,08,26,03,33,8.40
2008,08,26,03,34,8.40
2008,08,26,03,35,8.40
2008,08,26,03,36,8.40
2008,08,26,03,37,8.30
2008,08,26,03,38,8.30
2008,08,26,03,39,8.30
2008,08,26,03,40,8.30
2008,08,26,03,41,8.30
2008,08,26,03,42,8.30
2008,08,26,03,43,8.30
2008,08,26,03,44,8.30
2008,08,26,03,45,8.30
2008,08,26,03,46,8.20
2008,08,26,03,47,8.20
2008,08,26,03,48,8.20
2008,08,26,03,49,8.20
2008,08,26,03,50,8.20
2008,08,26,03,51,8.20
2008,08,26,03,52,8.10
2008,08,26,03,53,8.10
2008,08,26,03,54,8.10
2008,08,26,03,55,8.10
2008,08,26,03,56,8.10
2008,08,26,03,57,8.10
2008,08,26,03,58,8.00
2008,08,26,03,59,8.00
2008,08,26,04,00,8.00
2008,08,26,04,01,7.90
2008,08,26,04,02,7.90
2008,08,26,04,03,7.90
2008,08,26,04,04,7.80
2008,08,26,04,05,7.80
2008,08,26,04,06,7.80
2008,08,26,04,07,7.80
2008,08,26,04,08,7.80
2008,08,26,04,09,7.80
2008,08,26,04,10,7.80
2008,08,26,04,11,7.80
2008,08,26,04,12,7.70
2008,08,26,04,13,7.70
2008,08,26,04,14,7.70
2008,08,26,04,15,7.70
2008,08,26,04,16,7.70
2008,08,26,04,17,7.70
2008,08,26,04,18,7.70
2008,08,26,04,19,7.70
2008,08,26,04,20,7.70
2008,08,26,04,21,7.60
2008,08,26,04,22,7.60
2008,08,26,04,23,7.60
2008,08,26,04,24,7.60
2008,08,26,04,25,7.60
2008,08,26,04,26,7.60
2008,08,26,04,27,7.60
2008,08,26,04,28,7.50
2008,08,26,04,29,7.50
2008,08,26,04,30,7.50
2008,08,26,04,31,7.40
2008,08,26,04,32,7.40
2008,08,26,04,33,7.40
2008,08,26,04,34,7.40
2008,08,26,04,35,7.40
2008,08,26,04,36,7.30
2008,08,26,04,37,7.30
2008,08,26,04,38,7.30
2008,08,26,04,39,7.30
2008,08,26,04,40,7.30
2008,08,26,04,41,7.30
2008,08,26,04,42,7.30
2008,08,26,04,43,7.30
2008,08,26,04,44,7.20
2008,08,26,04,45,7.20
2008,08,26,04,46,7.20
2008,08,26,04,47,7.20
2008,08,26,04,48,7.20
2008,08,26,04,49,7.20
2008,08,26,04,50,7.20
2008,08,26,04,51,7.20
2008,08,26,04,52,7.20
2008,08,26,04,53,7.20
2008,08,26,04,54,7.20
2008,08,26,04,55,7.10
2008,08,26,04,56,7.10
2008,08,26,04,57,7.10
2008,08,26,04,58,7.10
2008,08,26,04,59,7.10
2008,08,26,05,00,7.00
2008,08,26,05,01,7.00
2008,08,26,05,02,7.00
2008,08,26,05,03,6.90
2008,08,26,05,04,6.90
2008,08,26,05,05,6.90
2008,08,26,05,06,6.90
2008,08,26,05,07,6.90
2008,08,26,05,08,6.90
2008,08,26,05,09,6.90
2008,08,26,05,10,6.90
2008,08,26,05,11,6.90
2008,08,26,05,12,6.90
2008,08,26,05,13,6.90
2008,08,26,05,14,6.90
2008,08,26,05,15,6.80
2008,08,26,05,16,6.80
2008,08,26,05,17,6.80
2008,08,26,05,18,6.80
2008,08,26,05,19,6.80
2008,08,26,05,20,6.80
2008,08,26,05,21,6.80
2008,08,26,05,22,6.80
2008,08,26,05,23,6.80
2008,08,26,05,24,6.80
2008,08,26,05,25,6.80
2008,08,26,05,26,6.80
2008,08,26,05,27,6.80
2008,08,26,05,28,6.80
2008,08,26,05,29,6.80
2008,08,26,05,30,6.80
2008,08,26,05,31,6.80
2008,08,26,05,32,6.80
2008,08,26,05,33,6.80
2008,08,26,05,34,6.80
2008,08,26,05,35,6.70
2008,08,26,05,36,6.70
2008,08,26,05,37,6.70
2008,08,26,05,38,6.70
2008,08,26,05,39,6.70
2008,08,26,05,40,6.70
2008,08,26,05,41,6.70
2008,08,26,05,42,6.70
2008,08,26,05,43,6.70
2008,08,26,05,44,6.60
2008,08,26,05,45,6.60
2008,08,26,05,46,6.60
2008,08,26,05,47,6.60
2008,08,26,05,48,6.60
2008,08,26,05,49,6.60
2008,08,26,05,50,6.60
2008,08,26,05,51,6.60
2008,08,26,05,52,6.60
2008,08,26,05,53,6.50
2008,08,26,05,54,6.50
2008,08,26,05,55,6.50
2008,08,26,05,56,6.60
2008,08,26,05,57,6.60
2008,08,26,05,58,6.50
2008,08,26,05,59,6.50
2008,08,26,06,00,6.60
2008,08,26,06,01,6.60
2008,08,26,06,02,6.60
2008,08,26,06,03,6.60
2008,08,26,06,04,6.60
2008,08,26,06,05,6.60
2008,08,26,06,06,6.60
2008,08,26,06,07,6.60
2008,08,26,06,08,6.60
2008,08,26,06,09,6.70
2008,08,26,06,10,6.60
2008,08,26,06,11,6.60
2008,08,26,06,12,6.60
2008,08,26,06,13,6.60
2008,08,26,06,14,6.60
2008,08,26,06,15,6.60
2008,08,26,06,16,6.60
2008,08,26,06,17,6.60
2008,08,26,06,18,6.50
2008,08,26,06,19,6.50
2008,08,26,06,20,6.50
2008,08,26,06,21,6.50
2008,08,26,06,22,6.40
2008,08,26,06,23,6.40
2008,08,26,06,24,6.40
2008,08,26,06,25,6.40
2008,08,26,06,26,6.40
2008,08,26,06,27,6.40
2008,08,26,06,28,6.40
2008,08,26,06,29,6.40
2008,08,26,06,30,6.40
2008,08,26,06,31,6.40
2008,08,26,06,32,6.40
2008,08,26,06,33,6.40
2008,08,26,06,34,6.30
2008,08,26,06,35,6.30
2008,08,26,06,36,6.30
2008,08,26,06,37,6.30
2008,08,26,06,38,6.40
2008,08,26,06,39,6.40
2008,08,26,06,40,6.40
2008,08,26,06,41,6.50
2008,08,26,06,42,6.50
2008,08,26,06,43,6.50
2008,08,26,06,44,6.60
2008,08,26,06,45,6.60
2008,08,26,06,46,6.60
2008,08,26,06,47,6.70
2008,08,26,06,48,6.70
2008,08,26,06,49,6.70
2008,08,26,06,50,6.60
2008,08,26,06,51,6.60
2008,08,26,06,52,6.60
2008,08,26,06,53,6.60
2008,08,26,06,54,6.60
2008,08,26,06,55,6.60
2008,08,26,06,56,6.60
2008,08,26,06,57,6.50
2008,08,26,06,58,6.50
2008,08,26,06,59,6.50
2008,08,26,07,00,6.50
2008,08,26,07,01,6.40
2008,08,26,07,02,6.40
2008,08,26,07,03,6.40
2008,08,26,07,04,6.40
2008,08,26,07,05,6.40
2008,08,26,07,06,6.40
2008,08,26,07,07,6.50
2008,08,26,07,08,6.50
2008,08,26,07,09,6.50
2008,08,26,07,10,6.50
2008,08,26,07,11,6.60
2008,08,26,07,12,6.60
2008,08,26,07,13,6.60
2008,08,26,07,14,6.60
2008,08,26,07,15,6.60
2008,08,26,07,16,6.60
2008,08,26,07,17,6.70
2008,08,26,07,18,6.70
2008,08,26,07,19,6.80
2008,08,26,07,20,6.80
2008,08,26,07,21,6.90
2008,08,26,07,22,7.00
2008,08,26,07,23,7.00
2008,08,26,07,24,7.10
2008,08,26,07,25,7.10
2008,08,26,07,26,7.20
2008,08,26,07,27,7.20
2008,08,26,07,28,7.30
2008,08,26,07,29,7.40
2008,08,26,07,30,7.50
2008,08,26,07,31,7.70
2008,08,26,07,32,7.80
2008,08,26,07,33,7.80
2008,08,26,07,34,7.90
2008,08,26,07,35,7.90
2008,08,26,07,36,7.90
2008,08,26,07,37,8.00
2008,08,26,07,38,8.00
2008,08,26,07,39,8.10
2008,08,26,07,40,8.10
2008,08,26,07,41,8.10
2008,08,26,07,42,8.20
2008,08,26,07,43,8.30
2008,08,26,07,44,8.30
2008,08,26,07,45,8.40
2008,08,26,07,46,8.50
2008,08,26,07,47,8.60
2008,08,26,07,48,8.70
2008,08,26,07,49,8.80
2008,08,26,07,50,8.90
2008,08,26,07,51,9.00
2008,08,26,07,52,9.10
2008,08,26,07,53,9.20
2008,08,26,07,54,9.30
2008,08,26,07,55,9.40
2008,08,26,07,56,9.40
2008,08,26,07,57,9.50
2008,08,26,07,58,9.60
2008,08,26,07,59,9.60
2008,08,26,08,00,9.70
2008,08,26,08,01,9.80
2008,08,26,08,02,9.80
2008,08,26,08,03,9.90
2008,08,26,08,04,10.00
2008,08,26,08,05,10.00
2008,08,26,08,06,10.10
2008,08,26,08,07,10.20
2008,08,26,08,08,10.20
2008,08,26,08,09,10.30
2008,08,26,08,10,10.50
2008,08,26,08,11,10.60
2008,08,26,08,12,10.60
2008,08,26,08,13,10.70
2008,08,26,08,14,10.80
2008,08,26,08,15,10.80
2008,08,26,08,16,10.80
2008,08,26,08,17,10.90
2008,08,26,08,18,10.90
2008,08,26,08,19,10.90
2008,08,26,08,20,11.00
2008,08,26,08,21,11.00
2008,08,26,08,22,11.10
2008,08,26,08,23,11.10
2008,08,26,08,24,11.20
2008,08,26,08,25,11.20
2008,08,26,08,26,11.20
2008,08,26,08,27,11.30
2008,08,26,08,28,11.40
2008,08,26,08,29,11.40
2008,08,26,08,30,11.50
2008,08,26,08,31,11.60
2008,08,26,08,32,11.70
2008,08,26,08,33,11.70
2008,08,26,08,34,11.80
2008,08,26,08,35,11.90
2008,08,26,08,36,12.00
2008,08,26,08,37,12.20
2008,08,26,08,38,12.30
2008,08,26,08,39,12.30
2008,08,26,08,40,12.40
2008,08,26,08,41,12.40
2008,08,26,08,42,12.40
2008,08,26,08,43,12.50
2008,08,26,08,44,12.50
2008,08,26,08,45,12.50
2008,08,26,08,46,12.50
2008,08,26,08,47,12.60
2008,08,26,08,48,12.60
2008,08,26,08,49,12.70
2008,08,26,08,50,12.70
2008,08,26,08,51,12.80
2008,08,26,08,52,12.90
2008,08,26,08,53,13.00
2008,08,26,08,54,13.10
2008,08,26,08,55,13.20
2008,08,26,08,56,13.20
2008,08,26,08,57,13.30
2008,08,26,08,58,13.30
2008,08,26,08,59,13.30
2008,08,26,09,00,13.30
2008,08,26,09,01,13.40
2008,08,26,09,02,13.40
2008,08,26,09,03,13.50
2008,08,26,09,04,13.60
2008,08,26,09,05,13.70
2008,08,26,09,06,13.70
2008,08,26,09,07,13.70
2008,08,26,09,08,13.80
2008,08,26,09,09,13.90
2008,08,26,09,10,13.90
2008,08,26,09,11,14.00
2008,08,26,09,12,14.00
2008,08,26,09,13,14.00
2008,08,26,09,14,14.10
2008,08,26,09,15,14.10
2008,08,26,09,16,14.20
2008,08,26,09,17,14.20
2008,08,26,09,18,14.20
2008,08,26,09,19,14.20
2008,08,26,09,20,14.20
2008,08,26,09,21,14.30
2008,08,26,09,22,14.40
2008,08,26,09,23,14.50
2008,08,26,09,24,14.60
2008,08,26,09,25,14.70
2008,08,26,09,26,14.80
2008,08,26,09,27,14.90
2008,08,26,09,28,15.00
2008,08,26,09,29,15.00
2008,08,26,09,30,15.00
2008,08,26,09,31,15.00
2008,08,26,09,32,15.20
2008,08,26,09,33,15.30
2008,08,26,09,34,15.40
2008,08,26,09,35,15.40
2008,08,26,09,36,15.40
2008,08,26,09,37,15.40
2008,08,26,09,38,15.50
2008,08,26,09,39,15.60
2008,08,26,09,40,15.70
2008,08,26,09,41,15.70
2008,08,26,09,42,15.70
2008,08,26,09,43,15.60
2008,08,26,09,44,15.50
2008,08,26,09,45,15.40
2008,08,26,09,46,15.30
2008,08,26,09,47,15.30
2008,08,26,09,48,15.30
2008,08,26,09,49,15.20
2008,08,26,09,50,15.10
2008,08,26,09,51,15.00
2008,08,26,09,52,15.00
2008,08,26,09,53,15.00
2008,08,26,09,54,15.00
2008,08,26,09,55,15.20
2008,08,26,09,56,15.30
2008,08,26,09,57,15.30
2008,08,26,09,58,15.40
2008,08,26,09,59,15.50
2008,08,26,10,00,15.40
2008,08,26,10,01,15.50
2008,08,26,10,02,15.50
2008,08,26,10,03,15.60
2008,08,26,10,04,15.60
2008,08,26,10,05,15.60
2008,08,26,10,06,15.60
2008,08,26,10,07,15.60
2008,08,26,10,08,15.60
2008,08,26,10,09,15.50
2008,08,26,10,10,15.40
2008,08,26,10,11,15.40
2008,08,26,10,12,15.40
2008,08,26,10,13,15.30
2008,08,26,10,14,15.20
2008,08,26,10,15,15.00
2008,08,26,10,16,15.00
2008,08,26,10,17,15.00
2008,08,26,10,18,15.00
2008,08,26,10,19,15.00
2008,08,26,10,20,15.00
2008,08,26,10,21,15.00
2008,08,26,10,22,15.10
2008,08,26,10,23,15.10
2008,08,26,10,24,15.20
2008,08,26,10,25,15.30
2008,08,26,10,26,15.40
2008,08,26,10,27,15.40
2008,08,26,10,28,15.40
2008,08,26,10,29,15.50
2008,08,26,10,30,15.60
2008,08,26,10,31,15.60
2008,08,26,10,32,15.70
2008,08,26,10,33,15.70
2008,08,26,10,34,15.60
2008,08,26,10,35,15.60
2008,08,26,10,36,15.60
2008,08,26,10,37,15.60
2008,08,26,10,38,15.50
2008,08,26,10,39,15.40
2008,08,26,10,40,15.30
2008,08,26,10,41,15.30
2008,08,26,10,42,15.30
2008,08,26,10,43,15.30
2008,08,26,10,44,15.40
2008,08,26,10,45,15.40
2008,08,26,10,46,15.50
2008,08,26,10,47,15.60
2008,08,26,10,48,15.70
2008,08,26,10,49,15.80
2008,08,26,10,50,15.90
2008,08,26,10,51,15.90
2008,08,26,10,52,15.90
2008,08,26,10,53,15.80
2008,08,26,10,54,15.80
2008,08,26,10,55,15.80
2008,08,26,10,56,15.90
2008,08,26,10,57,15.90
2008,08,26,10,58,15.90
2008,08,26,10,59,15.90
2008,08,26,11,00,15.70
2008,08,26,11,01,15.60
2008,08,26,11,02,15.50
2008,08,26,11,03,15.50
2008,08,26,11,04,15.40
2008,08,26,11,05,15.40
2008,08,26,11,06,15.40
2008,08,26,11,07,15.40
2008,08,26,11,08,15.40
2008,08,26,11,09,15.40
2008,08,26,11,10,15.40
2008,08,26,11,11,15.40
2008,08,26,11,12,15.50
2008,08,26,11,13,15.60
2008,08,26,11,14,15.70
2008,08,26,11,15,15.80
2008,08,26,11,16,15.90
2008,08,26,11,17,15.90
2008,08,26,11,18,16.00
2008,08,26,11,19,16.10
2008,08,26,11,20,16.10
2008,08,26,11,21,16.00
2008,08,26,11,22,16.00
2008,08,26,11,23,16.10
2008,08,26,11,24,16.20
2008,08,26,11,25,16.30
2008,08,26,11,26,16.40
2008,08,26,11,27,16.50
2008,08,26,11,28,16.70
2008,08,26,11,29,16.90
2008,08,26,11,30,17.00
2008,08,26,11,31,17.00
2008,08,26,11,32,17.00
2008,08,26,11,33,17.00
2008,08,26,11,34,17.10
2008,08,26,11,35,17.20
2008,08,26,11,36,17.20
2008,08,26,11,37,17.30
2008,08,26,11,38,17.30
2008,08,26,11,39,17.30
2008,08,26,11,40,17.30
2008,08,26,11,41,17.30
2008,08,26,11,42,17.40
2008,08,26,11,43,17.40
2008,08,26,11,44,17.50
2008,08,26,11,45,17.50
2008,08,26,11,46,17.70
2008,08,26,11,47,17.70
2008,08,26,11,48,17.70
2008,08,26,11,49,17.60
2008,08,26,11,50,17.50
2008,08,26,11,51,17.50
2008,08,26,11,52,17.50
2008,08,26,11,53,17.50
2008,08,26,11,54,17.60
2008,08,26,11,55,17.70
2008,08,26,11,56,17.70
2008,08,26,11,57,17.70
2008,08,26,11,58,17.80
2008,08,26,11,59,17.80
2008,08,26,12,00,17.80
2008,08,26,12,01,17.80
2008,08,26,12,02,17.80
2008,08,26,12,03,17.80
2008,08,26,12,04,17.80
2008,08,26,12,05,17.80
2008,08,26,12,06,17.80
2008,08,26,12,07,17.80
2008,08,26,12,08,17.70
2008,08,26,12,09,17.50
2008,08,26,12,10,17.50
2008,08,26,12,11,17.60
2008,08,26,12,12,17.60
2008,08,26,12,13,17.60
2008,08,26,12,14,17.60
2008,08,26,12,15,17.50
2008,08,26,12,16,17.40
2008,08,26,12,17,17.40
2008,08,26,12,18,17.40
2008,08,26,12,19,17.40
2008,08,26,12,20,17.40
2008,08,26,12,21,17.20
2008,08,26,12,22,17.10
2008,08,26,12,23,16.90
2008,08,26,12,24,16.90
2008,08,26,12,25,16.90
2008,08,26,12,26,16.90
2008,08,26,12,27,16.90
2008,08,26,12,28,17.00
2008,08,26,12,29,17.00
2008,08,26,12,30,17.00
2008,08,26,12,31,17.00
2008,08,26,12,32,16.90
2008,08,26,12,33,16.90
2008,08,26,12,34,16.80
2008,08,26,12,35,16.80
2008,08,26,12,36,16.70
2008,08,26,12,37,16.80
2008,08,26,12,38,16.80
2008,08,26,12,39,16.80
2008,08,26,12,40,16.80
2008,08,26,12,41,16.80
2008,08,26,12,42,16.80
2008,08,26,12,43,16.80
2008,08,26,12,44,16.80
2008,08,26,12,45,16.70
2008,08,26,12,46,16.70
2008,08,26,12,47,16.60
2008,08,26,12,48,16.70
2008,08,26,12,49,16.70
2008,08,26,12,50,16.60
2008,08,26,12,51,16.50
2008,08,26,12,52,16.50
2008,08,26,12,53,16.40
2008,08,26,12,54,16.40
2008,08,26,12,55,16.30
2008,08,26,12,56,16.30
2008,08,26,12,57,16.40
2008,08,26,12,58,16.30
2008,08,26,12,59,16.30
2008,08,26,13,00,16.30
2008,08,26,13,01,16.30
2008,08,26,13,02,16.30
2008,08,26,13,03,16.20
2008,08,26,13,04,16.30
2008,08,26,13,05,16.20
2008,08,26,13,06,16.20
2008,08,26,13,07,16.10
2008,08,26,13,08,16.20
2008,08,26,13,09,16.20
2008,08,26,13,10,16.30
2008,08,26,13,11,16.30
2008,08,26,13,12,16.30
2008,08,26,13,13,16.30
2008,08,26,13,14,16.30
2008,08,26,13,15,16.20
2008,08,26,13,16,16.10
2008,08,26,13,17,16.00
2008,08,26,13,18,15.90
2008,08,26,13,19,15.90
2008,08,26,13,20,15.90
2008,08,26,13,21,15.80
2008,08,26,13,22,15.80
2008,08,26,13,23,15.80
2008,08,26,13,24,15.80
2008,08,26,13,25,15.70
2008,08,26,13,26,15.70
2008,08,26,13,27,15.70
2008,08,26,13,28,15.80
2008,08,26,13,29,15.80
2008,08,26,13,30,15.80
2008,08,26,13,31,15.70
2008,08,26,13,32,15.70
2008,08,26,13,33,15.70
2008,08,26,13,34,15.60
2008,08,26,13,35,15.60
2008,08,26,13,36,15.50
2008,08,26,13,37,15.50
2008,08,26,13,38,15.50
2008,08,26,13,39,15.50
2008,08,26,13,40,15.50
2008,08,26,13,41,15.50
2008,08,26,13,42,15.60
2008,08,26,13,43,15.60
2008,08,26,13,44,15.60
2008,08,26,13,45,15.60
2008,08,26,13,46,15.60
2008,08,26,13,47,15.70
2008,08,26,13,48,15.60
2008,08,26,13,49,15.60
2008,08,26,13,50,15.60
2008,08,26,13,51,15.60
2008,08,26,13,52,15.60
2008,08,26,13,53,15.70
2008,08,26,13,54,15.70
2008,08,26,13,55,15.70
2008,08,26,13,56,15.80
2008,08,26,13,57,15.90
2008,08,26,13,58,16.00
2008,08,26,13,59,16.10
2008,08,26,14,00,16.20
2008,08,26,14,01,16.20
2008,08,26,14,02,16.20
2008,08,26,14,03,16.30
2008,08,26,14,04,16.30
2008,08,26,14,05,16.30
2008,08,26,14,06,16.30
2008,08,26,14,07,16.30
2008,08,26,14,08,16.40
2008,08,26,14,09,16.40
2008,08,26,14,10,16.50
2008,08,26,14,11,16.40
2008,08,26,14,12,16.40
2008,08,26,14,13,16.40
2008,08,26,14,14,16.40
2008,08,26,14,15,16.40
2008,08,26,14,16,16.40
2008,08,26,14,17,16.50
2008,08,26,14,18,16.50
2008,08,26,14,19,16.40
2008,08,26,14,20,16.40
2008,08,26,14,21,16.40
2008,08,26,14,22,16.50
2008,08,26,14,23,16.50
2008,08,26,14,24,16.50
2008,08,26,14,25,16.50
2008,08,26,14,26,16.50
2008,08,26,14,27,16.60
2008,08,26,14,28,16.60
2008,08,26,14,29,16.60
2008,08,26,14,30,16.70
2008,08,26,14,31,16.70
2008,08,26,14,32,16.80
2008,08,26,14,33,16.80
2008,08,26,14,34,16.70
2008,08,26,14,35,16.70
2008,08,26,14,36,16.70
2008,08,26,14,37,16.70
2008,08,26,14,38,16.70
2008,08,26,14,39,16.70
2008,08,26,14,40,16.70
2008,08,26,14,41,16.80
2008,08,26,14,42,16.70
2008,08,26,14,43,16.70
2008,08,26,14,44,16.70
2008,08,26,14,45,16.70
2008,08,26,14,46,16.70
2008,08,26,14,47,16.60
2008,08,26,14,48,16.50
2008,08,26,14,49,16.40
2008,08,26,14,50,16.40
2008,08,26,14,51,16.50
2008,08,26,14,52,16.60
2008,08,26,14,53,16.60
2008,08,26,14,54,16.60
2008,08,26,14,55,16.60
2008,08,26,14,56,16.70
2008,08,26,14,57,16.70
2008,08,26,14,58,16.70
2008,08,26,14,59,16.50
2008,08,26,15,00,16.40
2008,08,26,15,01,16.30
2008,08,26,15,02,16.30
2008,08,26,15,03,16.40
2008,08,26,15,04,16.50
2008,08,26,15,05,16.50
2008,08,26,15,06,16.40
2008,08,26,15,07,16.50
2008,08,26,15,08,16.60
2008,08,26,15,09,16.70
2008,08,26,15,10,16.80
2008,08,26,15,11,16.90
2008,08,26,15,12,16.90
2008,08,26,15,13,16.90
2008,08,26,15,14,16.80
2008,08,26,15,15,16.80
2008,08,26,15,16,16.80
2008,08,26,15,17,16.80
2008,08,26,15,18,16.80
2008,08,26,15,19,16.90
2008,08,26,15,20,16.90
2008,08,26,15,21,16.90
2008,08,26,15,22,16.90
2008,08,26,15,23,16.90
2008,08,26,15,24,16.80
2008,08,26,15,25,16.80
2008,08,26,15,26,16.70
2008,08,26,15,27,16.70
2008,08,26,15,28,16.70
2008,08,26,15,29,16.70
2008,08,26,15,30,16.60
2008,08,26,15,31,16.60
2008,08,26,15,32,16.60
2008,08,26,15,33,16.50
2008,08,26,15,34,16.40
2008,08,26,15,35,16.40
2008,08,26,15,36,16.40
2008,08,26,15,37,16.30
2008,08,26,15,38,16.30
2008,08,26,15,39,16.30
2008,08,26,15,40,16.30
2008,08,26,15,41,16.30
2008,08,26,15,42,16.20
2008,08,26,15,43,16.10
2008,08,26,15,44,16.10
2008,08,26,15,45,16.00
2008,08,26,15,46,16.00
2008,08,26,15,47,15.90
2008,08,26,15,48,15.90
2008,08,26,15,49,15.90
2008,08,26,15,50,15.90
2008,08,26,15,51,15.90
2008,08,26,15,52,15.80
2008,08,26,15,53,15.80
2008,08,26,15,54,15.80
2008,08,26,15,55,15.90
2008,08,26,15,56,15.90
2008,08,26,15,57,15.90
2008,08,26,15,58,15.90
2008,08,26,15,59,15.90
2008,08,26,16,00,16.00
2008,08,26,16,01,16.00
2008,08,26,16,02,16.00
2008,08,26,16,03,15.90
2008,08,26,16,04,15.90
2008,08,26,16,05,15.80
2008,08,26,16,06,15.80
2008,08,26,16,07,15.80
2008,08,26,16,08,15.80
2008,08,26,16,09,15.80
2008,08,26,16,10,15.70
2008,08,26,16,11,15.70
2008,08,26,16,12,15.70
2008,08,26,16,13,15.60
2008,08,26,16,14,15.60
2008,08,26,16,15,15.60
2008,08,26,16,16,15.50
2008,08,26,16,17,15.50
2008,08,26,16,18,15.40
2008,08,26,16,19,15.40
2008,08,26,16,20,15.40
2008,08,26,16,21,15.50
2008,08,26,16,22,15.50
2008,08,26,16,23,15.50
2008,08,26,16,24,15.60
2008,08,26,16,25,15.60
2008,08,26,16,26,15.60
2008,08,26,16,27,15.60
2008,08,26,16,28,15.60
2008,08,26,16,29,15.60
2008,08,26,16,30,15.60
2008,08,26,16,31,15.60
2008,08,26,16,32,15.50
2008,08,26,16,33,15.50
2008,08,26,16,34,15.40
2008,08,26,16,35,15.40
2008,08,26,16,36,15.40
2008,08,26,16,37,15.40
2008,08,26,16,38,15.40
2008,08,26,16,39,15.40
2008,08,26,16,40,15.40
2008,08,26,16,41,15.40
2008,08,26,16,42,15.40
2008,08,26,16,43,15.40
2008,08,26,16,44,15.40
2008,08,26,16,45,15.50
2008,08,26,16,46,15.50
2008,08,26,16,47,15.50
2008,08,26,16,48,15.50
2008,08,26,16,49,15.50
2008,08,26,16,50,15.40
2008,08,26,16,51,15.40
2008,08,26,16,52,15.40
2008,08,26,16,53,15.50
2008,08,26,16,54,15.50
2008,08,26,16,55,15.50
2008,08,26,16,56,15.60
2008,08,26,16,57,15.60
2008,08,26,16,58,15.60
2008,08,26,16,59,15.50
2008,08,26,17,00,15.60
2008,08,26,17,01,15.60
2008,08,26,17,02,15.60
2008,08,26,17,03,15.60
2008,08,26,17,04,15.60
2008,08,26,17,05,15.60
2008,08,26,17,06,15.50
2008,08,26,17,07,15.50
2008,08,26,17,08,15.50
2008,08,26,17,09,15.50
2008,08,26,17,10,15.50
2008,08,26,17,11,15.40
2008,08,26,17,12,15.40
2008,08,26,17,13,15.40
2008,08,26,17,14,15.40
2008,08,26,17,15,15.40
2008,08,26,17,16,15.40
2008,08,26,17,17,15.30
2008,08,26,17,18,15.40
2008,08,26,17,19,15.40
2008,08,26,17,20,15.30
2008,08,26,17,21,15.30
2008,08,26,17,22,15.30
2008,08,26,17,23,15.20
2008,08,26,17,24,15.20
2008,08,26,17,25,15.20
2008,08,26,17,26,15.20
2008,08,26,17,27,15.20
2008,08,26,17,28,15.20
2008,08,26,17,29,15.10
2008,08,26,17,30,15.10
2008,08,26,17,31,15.00
2008,08,26,17,32,15.00
2008,08,26,17,33,15.00